St. Johns, AZ

4:37 PM MST on April 29, 2017 (GMT -0700)
Saint Johns Industrial

Weather History for KSJN - May, 2014

Change the Weather History Date:

Friday, May 2, 2014

  Actual Average (KLSB) Record (KLSB)
Temperature  
Mean Temperature 50 °F -  
Max Temperature 72 °F 81 °F 87 °F (2015)
Min Temperature 28 °F 43 °F 41 °F (2016)
Degree Days  
Heating Degree Days 15    
Moisture  
Dew Point 10 °F    
Average Humidity 18    
Maximum Humidity 42    
Minimum Humidity 5    
Precipitation  
Precipitation 0.00 in - - ()
Sea Level Pressure  
Sea Level Pressure 30.04 in    
Wind  
Wind Speed 5 mph (SSW)    
Max Wind Speed 12 mph    
Max Gust Speed 17 mph    
Visibility 10 miles    
Events      
Averages and records for this station are not official NWS values.
T = Trace of Precipitation, MM = Missing Value Source: NWS Daily Summary

Daily Weather History Graph

Daily Weather History Graph

Search for Another Location

Airport or City:

Trip Planner

Search our weather history database for the weather conditions in past years. The results will help you decide how hot, cold, wet, or windy it might be!

Date:

Astronomy

May. 02, 2014 Rise Set
Actual Time 5:26 AM MST 7:03 PM MST
Civil Twilight 4:59 AM MST 7:30 PM MST
Nautical Twilight 4:27 AM MST 8:02 PM MST
Astronomical Twilight 3:53 AM MST 8:36 PM MST
Moon 8:09 AM MST (5/2) 10:25 PM MST (5/2)
Length of Visible Light 14h 30m
Length of Day
13h 36m
Waxing Crescent, 13% of the Moon is Illuminated
May 2
Waxing Crescent
May 6
First Quarter
May 14
Full
May 21
Last Quarter
May 28
New

Hourly Weather History & Observations

Time (MST) Temp. Windchill Dew Point Humidity Pressure Visibility Wind Dir Wind Speed Gust Speed Precip Events Conditions
12:54 AM 43.0 °F 39.5 °F 6.1 °F 22% 30.05 in 10.0 mi South 5.8 mph - N/A   Clear
1:54 AM 39.9 °F 36.7 °F 7.0 °F 26% 30.05 in 10.0 mi SSE 4.6 mph - N/A   Clear
2:54 AM 39.9 °F 35.1 °F 6.1 °F 25% 30.06 in 10.0 mi South 6.9 mph - N/A   Clear
3:54 AM 37.9 °F 34.4 °F 6.1 °F 27% 30.06 in 10.0 mi SSE 4.6 mph - N/A   Clear
4:54 AM 34.0 °F - 6.1 °F 31% 30.09 in 10.0 mi Calm Calm - N/A   Clear
5:54 AM 35.1 °F 31.0 °F 8.1 °F 33% 30.11 in 10.0 mi SSE 4.6 mph - N/A   Clear
6:54 AM 44.1 °F 41.5 °F 9.0 °F 24% 30.10 in 10.0 mi SSE 4.6 mph - N/A   Clear
7:54 AM 51.1 °F - 8.1 °F 18% 30.10 in 10.0 mi SSE 3.5 mph - N/A   Clear
8:54 AM 55.0 °F - 9.0 °F 16% 30.10 in 10.0 mi Calm Calm - N/A   Clear
9:54 AM 61.0 °F - 12.0 °F 15% 30.09 in 10.0 mi North - - N/A   Clear
10:54 AM 66.0 °F - 10.9 °F 12% 30.07 in 10.0 mi Variable 4.6 mph - N/A   Clear
11:54 AM 68.0 °F - 9.0 °F 10% 30.05 in 10.0 mi ENE 6.9 mph - N/A   Clear
12:54 PM 69.1 °F - 8.1 °F 9% 30.01 in 10.0 mi SSW 5.8 mph - N/A   Clear
1:54 PM 70.0 °F - 8.1 °F 9% 30.01 in 10.0 mi Variable 4.6 mph - N/A   Clear
2:54 PM 71.1 °F - 7.0 °F 8% 29.98 in 10.0 mi WNW 4.6 mph - N/A   Clear
3:54 PM 73.9 °F - 9.0 °F 8% 29.96 in 10.0 mi WNW 11.5 mph 17.3 mph N/A   Clear
4:54 PM 73.4 °F - 10.4 °F 9% 30.12 in 10.0 mi NNW 10.4 mph 17.3 mph N/A   Clear
5:54 PM 72.0 °F - 10.0 °F 9% 29.96 in 10.0 mi West 5.8 mph - N/A   Clear
6:54 PM 66.9 °F - 12.0 °F 12% 29.95 in 10.0 mi West 6.9 mph - N/A   Clear
7:54 PM 57.9 °F - 10.9 °F 16% 29.97 in 10.0 mi West 4.6 mph - N/A   Clear
8:54 PM 55.9 °F - 10.0 °F 16% 29.97 in 10.0 mi WSW 3.5 mph - N/A   Clear
9:54 PM 55.0 °F - 12.9 °F 19% 29.96 in 10.0 mi South 3.5 mph - N/A   Clear
10:54 PM 53.1 °F - 12.0 °F 20% 29.95 in 10.0 mi South 6.9 mph - N/A   Clear
11:54 PM 52.0 °F - 12.0 °F 20% 29.96 in 10.0 mi South 8.1 mph - N/A   Clear